Науйойи-Акмяне

Литва     56°19′19″N   22°52′39″E
темп.,
°C
ветер,
м/с
пор.,
м/с
влажн.,
%
обл.,
%
осадки,
мм/ч
давл.,
гПа
погр.,
м
12 апреля, пн
пн1200:00+10ююв6157697 0.0 1019353
03:00+10ююв61675100 0.0 1018444
06:00+9ююв61473100 0.0 1018386
09:00+10ююв61470100 0.0 1018470
12:00+13ююв71062100 0.0 1018706
15:00+14ю71154100 0.0 10171516
18:00+10ю41182100 0.4 1017557
21:00+9ююз118694 0.4 101814
13 апреля, вт
вт1300:00+6сз579098 0.0 1019292
03:00+4сз5891100 0.6 1020431
06:00+3сз5994100 1.3 1021596
09:00+5зсз3580100 1.4 1022455
12:00+7сз4560100 0.0 10231307
15:00+7сз3449100 0.0 10231422
18:00+8зсз4445100 0.0 10221577
21:00+5зсз5855100 0.0 1022354
14 апреля, ср
ср1400:00+3зсз3675100 0.0 1022276
03:00+3сз2481100 0.0 1022253
06:00+2ссз248892 0.0 1021112
09:00+4с3473100 0.0 1022368
12:00+7с455692 0.0 10221169
15:00+9ссв564678 0.0 10211850
18:00+7ссв685090 0.0 10221118
21:00+4ссв61164100 0.0 1023606
15 апреля, чт
чт1500:00+3с6146596 0.0 1023546
03:00+2ссв6126896 0.0 1023440
06:00+2ссв61278100 0.0 1023430
09:00+4ссв61271100 0.0 1024567
12:00+7св7105682 0.0 10231022
15:00+10ссв795594 0.0 10231406
18:00+9ссв7105575 0.0 10231107
21:00+5ссв6136168 0.0 1023448
16 апреля, пт
пт1600:00+4ссв6136591 0.0 1023511
03:00+4ссв71369100 0.0 1023528
06:00+3ссв61274100 0.1 1023540
09:00+3ссв61279100 0.4 1023534
12:00+4ссв61277100 0.1 1024589
15:00+5св61282100 0.3 1024598
18:00+7св61380100 0.1 1025641
21:00+7св61372100 0.4 1026642